Regional Weather Roundup
Issued by NWS

Home | Current Version | Previous Version | Graphics & Text | Print | Product List | Glossary On
Versions: 1 2 3 4 5 6 7 8 9 10 11 12 13 14 15 16 17 18 19 20 21 22 23 24 25 26 27 28 29 30 31 32 33 34 35 36 37 38 39 40 41 42 43 44 45 46 47 48 49 50
000
ASUS43 KBIS 010510
RWRND

NORTH DAKOTA REGIONAL WEATHER ROUNDUP
NATIONAL WEATHER SERVICE BISMARCK ND
1100 PM CST SAT FEB 28 2015

NOTE: "FAIR" INDICATES FEW OR NO CLOUDS BELOW 12,000 FEET WITH NO
SIGNIFICANT WEATHER AND/OR OBSTRUCTIONS TO VISIBILITY.


NDZ001>003-009>011-017-010600-
NORTHWEST NORTH DAKOTA

CITY           SKY/WX    TMP DP  RH WIND       PRES   REMARKS
WILLISTON      PTCLDY     5  -1  76 CALM      30.15S
MINOT          CLEAR      3  -3  76 SW10      30.13S WCI -12
MINOT AFB      CLEAR     -2  -6  84 W12       30.13S WCI -20
$$

NDZ018>021-031>035-040>046-010600-
SOUTHWEST NORTH DAKOTA

CITY           SKY/WX    TMP DP  RH WIND       PRES   REMARKS
BISMARCK       CLEAR      6   1  80 SW7       30.21S WCI  -6
DICKINSON      CLEAR      6   0  76 W9        30.12R WCI  -8
GARRISON         N/A     -3  -7  82 W6        30.15R WCI -15
HETTINGER ARPT PTCLDY     5   0  79 W3        30.17R
$$

NDZ004>008-012>016-024-026-027-054-010600-
NORTHEAST NORTH DAKOTA

CITY           SKY/WX    TMP DP  RH WIND       PRES   REMARKS
GRAND FORKS    CLEAR      5  -2  72 W9        30.17R WCI  -9
GRND FRKS AFB  CLEAR      5  -2  71 W6        30.16S WCI  -5
DEVILS LAKE    CLEAR      3  -2  78 W13       30.13S WCI -14
$$

NDZ022-023-025-028>030-036>039-047>053-010600-
SOUTHEAST NORTH DAKOTA

CITY           SKY/WX    TMP DP  RH WIND       PRES   REMARKS
FARGO          CLEAR      7   0  73 W6        30.21S WCI  -3
JAMESTOWN      CLEAR      2  -3  80 W7        30.18R WCI -11
$$



USA.gov is the U.S. government's official web portal to all federal, state and local government web resources and services.